Hourly Data Report for October 15, 2013

All times are specified in Local Standard Time (LST). Add 1 hour to adjust for Daylight Saving Time where and when it is observed.

PENTICTON A
BRITISH COLUMBIA

49°27'45.000" N
119°36'08.000" W
344.40 m
1126146
71889
YYF

Download Data

Hourly Data (October 2013)
Hourly Data Report for October 15, 2013
Temp Definition
°C
Dew Point Temp Definition
°C
Rel Hum Definition
%
Wind Dir Definition
10's deg

Wind Spd Definition
km/h
Visibility Definition
km
Stn Press Definition
kPa
Hmdx Definition


Wind Chill Definition


Weather Definition


TIME
00:00 Legend Double Dagger 2.0 -0.9 81 10 1 24.1 98.97     LegendNANA
01:00 Legend Double Dagger 0.8 -1.3 86 35 5 24.1 98.95     Clear
02:00 Legend Double Dagger -0.9 -3.1 85 10 4 24.1 98.95   -2 LegendNANA
03:00 Legend Double Dagger -1.0 -2.1 92 2 10 24.1 98.90   -5 LegendNANA
04:00 Legend Double Dagger -0.4 -2.2 88 9 3 24.1 98.91   -1 Clear
05:00 Legend Double Dagger 0.9 -0.7 89 32 3 24.1 98.90     LegendNANA
06:00 Legend Double Dagger 0.2 -1.7 87 3 4 24.1 98.86     LegendNANA
07:00 Legend Double Dagger -0.9 -2.3 90 5 4 24.1 98.88   -2 Mainly Clear
08:00 Legend Double Dagger 4.8 1.5 79 8 3 24.1 98.86     LegendNANA
09:00 Legend Double Dagger 6.3 2.2 75 21 2 24.1 98.83     LegendNANA
10:00 Legend Double Dagger 8.8 3.0 67 4 5 24.1 98.76     Mostly Cloudy
11:00 Legend Double Dagger 9.1 2.9 65 34 3 24.1 98.68     LegendNANA
12:00 Legend Double Dagger 10.0 2.6 60 28 3 24.1 98.56     LegendNANA
13:00 Legend Double Dagger 10.4 3.2 61 36 7 24.1 98.43     Mostly Cloudy
14:00 Legend Double Dagger 12.0 4.0 58 2 3 24.1 98.36     LegendNANA
15:00 Legend Double Dagger 12.8 3.3 52 15 14 24.1 98.25     LegendNANA
16:00 Legend Double Dagger 13.4 3.5 51 17 14 24.1 98.19     Mostly Cloudy
17:00 Legend Double Dagger 12.2 3.5 55 18 11 24.1 98.13     LegendNANA
18:00 Legend Double Dagger 10.7 3.5 61 34 13 24.1 98.16     LegendNANA
19:00 Legend Double Dagger 9.8 4.2 68 2 5 24.1 98.16     Mostly Cloudy
20:00 Legend Double Dagger 9.5 4.5 71 1 13 24.1 98.18     Rain Showers
21:00 Legend Double Dagger 8.9 6.4 84 29 6 24.1 98.22     Rain Showers
22:00 Legend Double Dagger 8.6 6.2 85 2 9 24.1 98.22     Cloudy
23:00 Legend Double Dagger 8.6 6.2 85   0 24.1 98.21     LegendNANA

Notes on Data Quality.

Legend

  • E = Estimated
  • M = Missing
  • NA = Not Available
  • ‡ = Partner data that is not subject to review by the National Climate Archives
Date modified: